Kezdőlap
METAR-TAF:

METAR-TAF

Repülőterek :

Litchfield Municipal Airport

Litchfield, Illinois, Amerikai Egyesült Államok

földrajzi szélesség: 39-09-44N, földrajzi hosszúság: 089-40-28W, magasság: 210 m

Jelenlegi meteorológiai megfigyelések

A jelentés 26 perccel ezelõtt készült, 09:55 UTC
Északi szél 9 kt
Hőmérséklet 13°C
Páratartalom 72%
Légköri nyomás 1016 hPa
Látótávolság: 16.1 km
Derült ég

METAR: K3LF 170955Z AUTO 01009KT 10SM CLR 13/08 A3000 RMK AO2 T01320083

Idő: 05:21 (10:21 UTC)


TAF: hiányzik

Meteorológiai megfigyelések és előrejelzések több, mint 4000 repülőtéren (METAR és TAF jelentéseket).

A térképen piros és sárga pontok jelzik az elérhető meteorológiai állomásokat.

Mozgassa az egeret a pont fölött, hogy megjelenjen az állomás neve.

Azután kattintson az időjárási megfigyelések és előrejelzések megtekintéséhez.

A térkép megváltoztatása: kattintson a fekete keresztel jelölt zöld gombra ráközelítéshez, a vonallal jelölt zöld gombra távolításhoz, vagy a zöld nyilakra a szomszédos térképek eléréséhez.


METAR-TAF: